TDRS 9

Last updated on July 6, 2021, 3:27 p.m. UTC

1 27389U 02011A   21186.91558737 -.00000285  00000-0  00000-0 0  9992
2 27389   8.2881  63.9575 0023277 294.4636 192.9690  1.00278052 72323
UTC
Height (km)
Latitude
Longitude
Inclination
Orbital Period
UTC large
Height (km)
Speed (km/s)
/
Latitude / Longitude
Inclination (degrees)
Orbital Period (minutes)
Azimuth
Elevation
Range (km)
Doppler Factor
iOS Compass Heading
iOS Angle